W9PEM-13 Weather Reports


Display with metric or nautical units.
time (UTC)temp
F
wind
direction
speed
MPH
gust
MPH
rain 1hr
in
rain 24hr
in
rain mn
in
humidity
%
barometer
mb
20260503172556 59 219 17.0 24.0 0.01 0.02 0.02 54 977.5
20260503171556 58 224 15.0 18.0 0.01 0.01 0.01 56 977.7
20260503170556 57 226 13.0 17.0 0.00 0.01 0.01 60 978.0
20260503081043 46 239 6.0 9.0 0.00 0.00 0.00 61 981.0
20260503072042 46 250 7.0 9.0 0.00 0.00 0.00 62 981.3
20260503071042 46 229 6.0 8.0 0.00 0.00 0.00 61 981.3
20260503055042 44 250 4.0 5.0 0.00 0.00 0.00 63 982.0
20260503054042 45 247 4.0 6.0 0.00 0.00 0.00 63 982.1
20260503053044 45 240 5.0 7.0 0.00 0.00 0.00 63 982.2
20260503052043 44 232 5.0 6.0 0.00 0.00 0.00 64 982.2
20260503051042 44 246 5.0 7.0 0.00 0.00 0.00 65 982.4
20260503050043 45 238 5.0 8.0 0.00 0.00 0.00 63 982.4
20260503045042 45 235 7.0 9.0 0.00 0.00 0.00 62 982.4
20260503044042 45 245 5.0 7.0 0.00 0.00 0.00 63 982.5
20260503043042 44 246 5.0 7.0 0.00 0.00 0.00 65 982.5
20260503042042 43 243 5.0 7.0 0.00 0.00 0.00 69 982.6
20260503041043 42 228 3.0 4.0 0.00 0.00 0.00 73 982.7
20260503040043 42 216 3.0 5.0 0.00 0.00 0.00 74 982.8
20260503035042 42 224 4.0 7.0 0.00 0.00 0.00 74 982.9
20260503033053 0 218 5.0 0.0 0.00 0.00 0.00
20260503033042 42 218 5.0 7.0 0.00 0.00 0.00 72 983.0
20260503032042 41 220 5.0 6.0 0.00 0.00 0.00 74 983.2
20260503031042 40 213 3.0 4.0 0.00 0.00 0.00 77 983.2
20260503030042 40 208 3.0 4.0 0.00 0.00 0.00 76 983.4
20260503025042 40 228 3.0 4.0 0.00 0.00 0.00 78 983.5
20260503024042 40 228 2.0 3.0 0.00 0.00 0.00 79 983.5
20260503023042 41 217 2.0 3.0 0.00 0.00 0.00 77 983.5
20260503022042 42 199 1.0 2.0 0.00 0.00 0.00 76 983.6
20260503021041 42 156 1.0 2.0 0.00 0.00 0.00 76 983.6
20260503020042 42 156 2.0 3.0 0.00 0.00 0.00 76 983.6
20260503015041 42 184 3.0 5.0 0.00 0.00 0.00 77 983.5
20260503014042 42 145 2.0 4.0 0.00 0.00 0.00 75 983.5
20260503013043 43 146 2.0 3.0 0.00 0.00 0.00 74 983.4
20260503012041 43 188 2.0 4.0 0.00 0.00 0.00 73 983.4
20260503011041 44 116 2.0 2.0 0.00 0.00 0.00 72 983.4
20260503010041 44 137 3.0 4.0 0.00 0.00 0.00 71 983.4
20260503005042 44 150 1.0 3.0 0.00 0.00 0.00 71 983.5
20260503004042 45 151 2.0 4.0 0.00 0.00 0.00 69 983.5
20260503003042 46 169 3.0 4.0 0.00 0.00 0.00 68 983.6
20260503002042 46 178 4.0 6.0 0.00 0.00 0.00 66 983.6
20260503001041 47 165 5.0 8.0 0.00 0.00 0.00 63 983.6
20260503000041 48 184 2.0 3.0 0.00 0.00 0.00 62 983.7
20260502235041 48 154 3.0 5.0 0.00 0.00 0.00 61 983.8
20260502234041 47 167 5.0 7.0 0.00 0.00 0.00 61 983.8
20260502232041 48 95 6.0 9.0 0.00 0.00 0.00 64 984.1
20260502231043 49 131 4.0 6.0 0.00 0.00 0.00 57 984.2
20260502230041 49 118 5.0 6.0 0.00 0.00 0.00 55 984.2
20260502225041 48 126 3.0 3.0 0.00 0.00 0.00 57 984.4
20260502224041 49 155 3.0 6.0 0.00 0.00 0.00 54 984.4
20260502223041 49 142 3.0 5.0 0.00 0.00 0.00 54 984.5
20260502222041 49 151 6.0 8.0 0.00 0.00 0.00 53 984.6
20260502221042 49 170 5.0 8.0 0.00 0.00 0.00 52 984.7
20260502220041 49 131 3.0 6.0 0.00 0.00 0.00 55 984.8
20260502215041 50 168 4.0 7.0 0.00 0.00 0.00 51 984.8
20260502214041 49 134 3.0 6.0 0.00 0.00 0.00 55 984.9
20260502212041 49 144 4.0 6.0 0.00 0.00 0.00 54 985.1
20260502211041 50 124 4.0 7.0 0.00 0.00 0.00 52 985.0
20260502210041 49 151 4.0 6.0 0.00 0.00 0.00 53 985.1
20260502205041 50 121 6.0 9.0 0.00 0.00 0.00 51 985.2
20260502204041 49 121 5.0 10.0 0.00 0.00 0.00 54 985.4
20260502203041 47 137 3.0 5.0 0.00 0.00 0.00 55 985.7
20260502202041 48 159 5.0 7.0 0.00 0.00 0.00 52 985.8
20260502201041 50 113 4.0 7.0 0.00 0.00 0.00 52 985.8
20260502200041 49 170 6.0 10.0 0.00 0.00 0.00 52 986.0
20260502195041 49 151 5.0 8.0 0.00 0.00 0.00 52 986.2
20260502194041 48 132 7.0 9.0 0.00 0.00 0.00 52 986.4
20260502193041 48 80 6.0 8.0 0.00 0.00 0.00 53 986.5
20260502191041 47 93 4.0 6.0 0.00 0.00 0.00 53 986.6
20260502190041 48 132 5.0 8.0 0.00 0.00 0.00 52 986.7
20260502185041 47 98 5.0 8.0 0.00 0.00 0.00 52 986.8
20260502184040 48 121 9.0 10.0 0.00 0.00 0.00 50 986.8
20260502183041 49 130 4.0 6.0 0.00 0.00 0.00 51 986.8
20260502182041 51 128 4.0 6.0 0.00 0.00 0.00 51 987.0
20260502181041 50 92 3.0 7.0 0.00 0.00 0.00 50 987.1